Location: Roland
(31.1349°N, 85.4372°W)
Time: 13:58:41
(UTC+00:00)

N. Korean satellite - Visible Passes

Search period start: 28 February 2021 00:00
Search period end: 10 March 2021 00:00
Orbit: 451 x 503 km, 97.2° (Epoch: 27 February)

Date Brightness Start Highest point End Pass type
(mag) Time Alt. Az. Time Alt. Az. Time Alt. Az.
28 Feb 10.0 10:02:08 10° E 10:02:57 11° E 10:03:47 10° ESE visible
28 Feb 7.4 11:33:09 10° NNW 11:36:16 30° WNW 11:39:24 10° SW visible
01 Mar 6.4 11:06:05 10° N 11:09:37 78° WNW 11:13:12 10° SSW visible
02 Mar 8.0 10:39:33 10° NNE 10:42:54 39° E 10:46:17 10° S visible
03 Mar 9.6 10:13:45 10° NE 10:16:06 17° E 10:18:27 10° SE visible
04 Mar 6.8 11:19:13 10° N 11:22:40 47° WNW 11:26:08 10° SSW visible
05 Mar 7.0 10:52:25 10° NNE 10:55:58 64° E 10:59:33 10° S visible
06 Mar 8.9 10:26:11 10° NE 10:29:11 25° E 10:32:14 10° SSE visible
07 Mar 10.0 10:01:22 10° ENE 10:02:20 11° E 10:03:18 10° ESE visible
07 Mar 7.4 11:32:27 10° NNW 11:35:39 30° WNW 11:38:51 10° SW visible
08 Mar 6.5 11:05:23 10° N 11:08:59 79° WNW 11:12:37 10° SSW visible
09 Mar 8.1 10:38:49 10° NNE 10:42:14 39° E 10:45:40 10° S visible
